Location: Chavenne
(46.6022°N, 3.2951°E)
Time: 13:22:03
(UTC+00:00)

RESURS DK-1 - Pass Details

Date: 09 April 2020
Orbit: 557 x 561 km, 69.9° (Epoch: 25 May)

Event Time Altitude Azimuth Distance (km) Brightness Sun altitude
Rises 20:44:04 0° 334° (NNW) 2,761 7.0 -21.8°
Reaches altitude 10° 20:46:19 10° 339° (NNW) 1,860 5.9 -22.1°
Enters shadow 20:50:15 55° 48° (NE) 682 2.6 -22.6°
